Regional Weather Roundup
Issued by NWS Upton, NY

Current Version | Previous Version | Graphics & Text | Print | Product List | Glossary Off
Versions: 1 2 3 4 5 6 7 8 9 10 11 12 13 14 15 16 17 18 19 20 21 22 23 24 25 26 27

000
ASUS41 KOKX 211108
RWROKX

REGIONAL WEATHER ROUNDUP
NATIONAL WEATHER SERVICE NEW YORK NY
600 AM EST TUE FEB 21 2017

NOTE: "FAIR" INDICATES FEW OR NO CLOUDS BELOW 12,000 FEET WITH NO
SIGNIFICANT WEATHER AND/OR OBSTRUCTIONS TO VISIBILITY.

NYZ071-072-176-178-NJZ106-104-211200-
NEW YORK CITY METRO AREA

CITY           SKY/WX    TMP DP  RH WIND       PRES   REMARKS
Central Park   CLOUDY    35  14  42 NE6       30.40S WCI  30
Wall St Helipt NOT AVBL
LaGuardia APRT CLOUDY    36  17  46 NE8       30.38F WCI  30
Kennedy INTL   PTCLDY    31  17  56 NE8       30.40S WCI  23
Breezy Point     N/A     34 N/A N/A NE7G13      N/A  WCI  28
Newark/Liberty PTCLDY    32  16  51 NE7       30.38S WCI  26
Teterboro      CLOUDY    32  18  56 NE5       30.37F WCI  27
$$

NYZ177-179-078>081-211200-
LONG ISLAND NEW YORK

CITY           SKY/WX    TMP DP  RH WIND       PRES   REMARKS
Jones Beach      N/A     34 N/A N/A NE10        N/A  WCI  26
Matinecock PT  NOT AVBL
Farmingdale    CLEAR     29  18  63 NE7       30.39S WCI  22
MacArthur/ISP  PTCLDY    26  20  77 CALM      30.39R
Shirley        CLEAR     24  19  81 CALM      30.40R
Westhampton    CLEAR     17  13  84 NW5       30.41R WCI  10
Southampton    NOT AVBL
Bridgehampton  NOT AVBL
East Hampton     N/A     21  16  83 CALM      30.38R
Montauk          N/A     34  21  59 NE5       30.38R WCI  30
$$

NYZ052-065-067-211200-
HUDSON VALLEY

CITY           SKY/WX    TMP DP  RH WIND       PRES   REMARKS
White Plains   CLOUDY    27  14  58 CALM      30.36F
Newburgh       CLEAR     23  18  80 CALM      30.38F
Montgomery     CLOUDY    21  15  78 CALM      30.37F
Poughkeepsie   CLOUDY    20  15  81 CALM      30.39F
Albany         CLOUDY    19  13  77 CALM      30.39R
$$

NJZ001-105-106-008-010-013-015-019>022-104-211200-
NEW JERSEY

CITY           SKY/WX    TMP DP  RH WIND       PRES   REMARKS
Newark/Liberty PTCLDY    32  16  51 NE7       30.38S WCI  26
Teterboro      CLOUDY    32  18  56 NE5       30.37F WCI  27
Caldwell       CLOUDY    28  18  66 CALM      30.38F
Somerville     CLOUDY    22  17  81 NW3       30.35F
Linden         NOT AVBL
Sussex         CLOUDY    22  18  85 CALM      30.35F
Andover          N/A     24  20  84 CALM      30.34F
Trenton        CLOUDY    31  15  52 NE5       30.35F WCI  26
Millville      CLOUDY    29  21  72 CALM      30.35R
Atlantic City  CLOUDY    29  19  66 CALM      30.35S
Wrightstown    CLOUDY    29  16  57 CALM      30.33F
Toms River     CLOUDY    21  16  81 N3        30.37S
Belmar         CLOUDY    33  23  66 NE3       30.37S
$$

PAZ047>061-062-071-211200-
EASTERN PENNSYLVANIA

CITY           SKY/WX    TMP DP  RH WIND       PRES   REMARKS
Philadelphia   MOCLDY    35  17  47 NE7       30.38R WCI  29
Allentown      CLOUDY    28  15  58 CALM      30.37R
Scranton       CLOUDY    30  16  56 CALM      30.30R
$$

CTZ002-004>006-009-010-012-RIZ004-006-007-MAZ004-011-015-211200-
SOUTHERN NEW ENGLAND
 IN CT

CITY           SKY/WX    TMP DP  RH WIND       PRES   REMARKS
Bradley INTL   CLOUDY    22  12  65 NW5       30.40R WCI  16
Hartford       CLOUDY    23  18  81 CALM      30.41R
Danbury        CLOUDY    19  14  81 CALM      30.38F
Wtrbury/Oxford CLEAR     28  10  47 CALM      30.37S
Bridgeport     CLOUDY    31  14  49 CALM      30.40R
Meriden        CLOUDY    26  14  60 CALM      30.40R
New Haven      CLEAR     28  13  53 N5        30.40R WCI  23
Chester          N/A     28  12  50 N6        30.37R WCI  22
Groton         CLEAR     28  15  58 N8        30.38R WCI  20
Wilimantic     CLOUDY    20  16  84 CALM      30.39S

 IN RI

CITY           SKY/WX    TMP DP  RH WIND       PRES   REMARKS
Providence     CLEAR     28  13  53 NW5       30.38S WCI  23
Block Island   CLEAR     31  21  66 N5        30.38R WCI  26
Westerly       CLEAR     29  13  51 N5        30.38R WCI  24
 IN MA

CITY           SKY/WX    TMP DP  RH WIND       PRES   REMARKS
Boston         CLEAR     31  15  52 NW8       30.38S WCI  23
Worcester      CLOUDY    29   8  41 N3        30.33R
Westfield      CLOUDY    16  13  88 CALM      30.39R
Provincetown   CLEAR     37  26  64 NE9       30.36R WCI  30
Nantucket      CLEAR     34  27  75 N9        30.33S WCI  27
$$

ANZ330-335-338-340-345-350-353-355-211200-
COASTAL MARINE OBSERVATIONS


STATION/POSITION TIME  SKY/WX   TEMP    WIND        PRES    VSBY  WAVE
                                AIR SEA DIR/SP/G                  HT/PER
                 (UTC)          (F)     (DEG/KT/KT) (MB)    (MI)  (FT/S)
NY HARB ENTRANCE 1050            38 42   60/ 14/ 16 1028.3          2/ 4
20 S FIRE ISLAND 1050            39 42   50/ 10/ 12 1028.6          2/ 4
GREAT SOUTH BAY  NOT AVBL
23 SSW MONTAUK P 0950            38 44              1028.4          3/ 5
15 E BARNEGAT LI 1030               44                N/A           3/ 5
HUDSON CANYON    0950               49              1027.2          4/ 6
KINGS POINT      1048            33 38              1028.9
EXECUTION ROCKS  NOT AVBL
CENTRAL LI SOUND 1030            35      40/  8/ 10   N/A           1/ 2
EASTERN LI SOUND NOT AVBL
ROBBINS REEF     1048            37      70/  9/ 11 1028.7
$$


>>>>>>>>>>>>>>>>>>>>>>>>>>>> KEY <<<<<<<<<<<<<<<<<<<<<<<<<<<
>                                                          <
>     SKY/WX - Sky Condition/Present Weather               <
>     TMP    - Temperature in Fahrenheit                   <
>     DP     - Dew Point in Fahrenheit                     <
>     RH     - Relative Humidity in Percent                <
>     WIND   - Direction (from) and Speed in MPH           <
>     PRES   - Mean Sea Level Pressure (inches of Hg)      <
>     WCI    - Wind Chill Index                            <
>     VSB    - VISIBILITY IN MILES                         <
>     HX     - HEAT INDEX                                  <
>     TC     - TEMPERATURE IN CELSIUS                      <
>     VRB    - VARIABLE WIND DIRECTION                     <
>                                                          <
>>>>>>>>>>>>>>>>>>>>>>>>>>>> KEY <<<<<<<<<<<<<<<<<<<<<<<<<<<




USA.gov is the U.S. government's official web portal to all federal, state and local government web resources and services.